User: anonymous   Login
Location: Unspecified
(0.0000°N, 0.0000°E)
Time: 23:12:34
(UTC+00:00)
Language:

LEMUR 2 WINGO - Orbit

View from above orbital plane
View from above orbital plane
View from above satellite
View from above satellite

Ground track
Ground track

The orbit data is extracted from the following two-line orbital elements,

1 41874U 16062F   21023.80618680  .00002874  00000-0  11878-3 0  9993
2 41874  51.6537 291.0938 0011289 196.6041 163.4570 15.27300053231809
Epoch (UTC): 23 January 2021 19:20:54
Eccentricity: 0.0011289
inclination: 51.6537°
perigee height: 476 km
apogee height: 491 km
right ascension of ascending node: 291.0938°
argument of perigee: 196.6041°
revolutions per day: 15.27300053
mean anomaly at epoch: 163.4570°
orbit number at epoch: 23180

The dashed part of the orbit path shows where the satellite is in the earth's shadow,  

DLR